| time (UTC) | temp F | wind direction | speed MPH | gust MPH | rain 1hr in | rain 24hr in | rain mn in | humidity % | barometer mb |
| 20260906100907 | 78 | 231 | 0.0 | 0.0 | 0.00 | 0.00 | 0.00 | ||
| 20260906093907 | 80 | 231 | 0.0 | 0.0 | 0.00 | 0.00 | 0.00 | ||
| 20260906093408 | 79 | 231 | 0.0 | 0.0 | 0.00 | 0.00 | 0.00 | ||
| 20260906091908 | 80 | 231 | 0.0 | 0.0 | 0.00 | 0.00 | 0.00 | ||
| 20260906091407 | 79 | 231 | 0.0 | 0.0 | 0.00 | 0.00 | 0.00 | ||
| 20260906090907 | 79 | 231 | 0.0 | 0.0 | 0.00 | 0.00 | 0.00 | ||
| 20260906085906 | 80 | 231 | 0.0 | 0.0 | 0.00 | 0.00 | 0.00 | ||
| 20260906083907 | 81 | 231 | 0.0 | 0.0 | 0.00 | 0.00 | 0.00 | ||
| 20260906082407 | 81 | 231 | 0.0 | 0.0 | 0.00 | 0.00 | 0.00 | ||
| 20260906081908 | 82 | 184 | 0.0 | 1.0 | 0.00 | 0.00 | 0.00 | ||
| 20260906081407 | 82 | 214 | 2.0 | 2.0 | 0.00 | 0.00 | 0.00 | ||
| 20260906075907 | 83 | 193 | 1.0 | 2.0 | 0.00 | 0.00 | 0.00 | ||
| 20260906074908 | 83 | 255 | 2.0 | 2.0 | 0.00 | 0.00 | 0.00 | ||
| 20260906074407 | 83 | 245 | 2.0 | 3.0 | 0.00 | 0.00 | 0.00 | ||
| 20260906073907 | 82 | 239 | 0.0 | 0.0 | 0.00 | 0.00 | 0.00 | ||
| 20260906073407 | 83 | 227 | 2.0 | 1.0 | 0.00 | 0.00 | 0.00 | ||
| 20260906072407 | 83 | 90 | 0.0 | 2.0 | 0.00 | 0.00 | 0.00 | ||
| 20260906071907 | 83 | 220 | 0.0 | 1.0 | 0.00 | 0.00 | 0.00 | ||
| 20260906070407 | 83 | 290 | 0.0 | 2.0 | 0.00 | 0.00 | 0.00 | ||
| 20260906065907 | 83 | 62 | 0.0 | 0.0 | 0.00 | 0.00 | 0.00 | ||
| 20260906064907 | 84 | 96 | 2.0 | 1.0 | 0.00 | 0.00 | 0.00 | ||
| 20260906064407 | 84 | 201 | 0.0 | 2.0 | 0.00 | 0.00 | 0.00 | ||
| 20260906062407 | 84 | 201 | 1.0 | 2.0 | 0.00 | 0.00 | 0.00 | ||
| 20260906061407 | 84 | 207 | 2.0 | 3.0 | 0.00 | 0.00 | 0.00 | ||
| 20260906055907 | 84 | 193 | 1.0 | 1.0 | 0.00 | 0.00 | 0.00 | ||
| 20260906055407 | 85 | 225 | 0.0 | 0.0 | 0.00 | 0.00 | 0.00 | ||
| 20260906054907 | 85 | 170 | 1.0 | 2.0 | 0.00 | 0.00 | 0.00 | ||
| 20260906053907 | 84 | 235 | 0.0 | 2.0 | 0.00 | 0.00 | 0.00 | ||
| 20260906051408 | 85 | 245 | 0.0 | 1.0 | 0.00 | 0.00 | 0.00 | ||
| 20260906050908 | 86 | 134 | 1.0 | 2.0 | 0.00 | 0.00 | 0.00 | ||
| 20260906050408 | 85 | 155 | 1.0 | 2.0 | 0.00 | 0.00 | 0.00 | ||
| 20260906045908 | 85 | 132 | 0.0 | 1.0 | 0.00 | 0.00 | 0.00 | ||
| 20260906044908 | 85 | 100 | 0.0 | 2.0 | 0.00 | 0.00 | 0.00 | ||
| 20260906043408 | 86 | 199 | 0.0 | 3.0 | 0.00 | 0.00 | 0.00 | ||
| 20260906041408 | 86 | 148 | 0.0 | 0.0 | 0.00 | 0.00 | 0.00 | ||
| 20260906040911 | 86 | 145 | 0.0 | 0.0 | 0.00 | 0.00 | 0.00 | ||
| 20260906040407 | 86 | 193 | 0.0 | 3.0 | 0.00 | 0.00 | 0.00 | ||
| 20260906035907 | 87 | 142 | 0.0 | 3.0 | 0.00 | 0.00 | 0.00 | ||
| 20260906034907 | 88 | 190 | 2.0 | 1.0 | 0.00 | 0.00 | 0.00 | ||
| 20260906034409 | 88 | 144 | 1.0 | 1.0 | 0.00 | 0.00 | 0.00 | ||
| 20260906033909 | 88 | 184 | 3.0 | 3.0 | 0.00 | 0.00 | 0.00 | ||
| 20260906032409 | 88 | 80 | 2.0 | 5.0 | 0.00 | 0.00 | 0.00 | ||
| 20260906031908 | 88 | 124 | 1.0 | 3.0 | 0.00 | 0.00 | 0.00 | ||
| 20260906030407 | 89 | 177 | 1.0 | 7.0 | 0.00 | 0.00 | 0.00 | ||
| 20260906021408 | 90 | 120 | 3.0 | 5.0 | 0.00 | 0.00 | 0.00 | ||
| 20260906015908 | 90 | 189 | 1.0 | 6.0 | 0.00 | 0.00 | 0.00 | ||
| 20260906015408 | 90 | 82 | 2.0 | 4.0 | 0.00 | 0.00 | 0.00 | ||
| 20260906014911 | 90 | 253 | 4.0 | 2.0 | 0.00 | 0.00 | 0.00 | ||
| 20260906013909 | 91 | 61 | 4.0 | 6.0 | 0.00 | 0.00 | 0.00 | ||
| 20260906013408 | 91 | 127 | 2.0 | 4.0 | 0.00 | 0.00 | 0.00 | ||
| 20260906012408 | 92 | 151 | 5.0 | 6.0 | 0.00 | 0.00 | 0.00 | ||
| 20260906010408 | 95 | 73 | 0.0 | 0.0 | 0.00 | 0.00 | 0.00 | ||
| 20260906005908 | 95 | 48 | 0.0 | 1.0 | 0.00 | 0.00 | 0.00 | ||
| 20260906005408 | 95 | 83 | 0.0 | 2.0 | 0.00 | 0.00 | 0.00 | ||
| 20260905233409 | 100 | 69 | 0.0 | 0.0 | 0.00 | 0.00 | 0.00 | ||
| 20260905231909 | 100 | 56 | 1.0 | 1.0 | 0.00 | 0.00 | 0.00 | ||
| 20260905231409 | 101 | 100 | 2.0 | 4.0 | 0.00 | 0.00 | 0.00 | ||
| 20260905230409 | 100 | 52 | 3.0 | 1.0 | 0.00 | 0.00 | 0.00 | ||
| 20260905225909 | 101 | 25 | 1.0 | 4.0 | 0.00 | 0.00 | 0.00 | ||
| 20260905224409 | 101 | 87 | 3.0 | 8.0 | 0.00 | 0.00 | 0.00 | ||
| 20260905222909 | 101 | 180 | 2.0 | 2.0 | 0.00 | 0.00 | 0.00 | ||
| 20260905221911 | 101 | 63 | 1.0 | 2.0 | 0.00 | 0.00 | 0.00 | ||
| 20260905221409 | 101 | 173 | 2.0 | 1.0 | 0.00 | 0.00 | 0.00 | ||
| 20260905213909 | 102 | 306 | 0.0 | 0.0 | 0.00 | 0.00 | 0.00 | ||
| 20260905212909 | 101 | 80 | 3.0 | 4.0 | 0.00 | 0.00 | 0.00 | ||
| 20260905205909 | 103 | 13 | 3.0 | 1.0 | 0.00 | 0.00 | 0.00 | ||
| 20260905204409 | 105 | 144 | 0.0 | 3.0 | 0.00 | 0.00 | 0.00 | ||
| 20260905203909 | 104 | 59 | 3.0 | 4.0 | 0.00 | 0.00 | 0.00 | ||
| 20260905203409 | 101 | 80 | 2.0 | 2.0 | 0.00 | 0.00 | 0.00 | ||
| 20260905202909 | 103 | 65 | 0.0 | 0.0 | 0.00 | 0.00 | 0.00 | ||
| 20260905202409 | 103 | 359 | 5.0 | 5.0 | 0.00 | 0.00 | 0.00 | ||
| 20260905201909 | 104 | 166 | 1.0 | 4.0 | 0.00 | 0.00 | 0.00 | ||
| 20260905201409 | 100 | 72 | 2.0 | 4.0 | 0.00 | 0.00 | 0.00 | ||
| 20260905200909 | 101 | 176 | 3.0 | 6.0 | 0.00 | 0.00 | 0.00 | ||
| 20260905200409 | 101 | 134 | 2.0 | 4.0 | 0.00 | 0.00 | 0.00 | ||
| 20260905195409 | 103 | 235 | 4.0 | 7.0 | 0.00 | 0.00 | 0.00 | ||
| 20260905194411 | 103 | 231 | 4.0 | 5.0 | 0.00 | 0.00 | 0.00 | ||
| 20260905193909 | 103 | 45 | 3.0 | 3.0 | 0.00 | 0.00 | 0.00 | ||
| 20260905193409 | 103 | 49 | 1.0 | 0.0 | 0.00 | 0.00 | 0.00 | ||
| 20260905192910 | 102 | 199 | 3.0 | 5.0 | 0.00 | 0.00 | 0.00 | ||
| 20260905192410 | 104 | 176 | 3.0 | 4.0 | 0.00 | 0.00 | 0.00 | ||
| 20260905191410 | 103 | 300 | 1.0 | 0.0 | 0.00 | 0.00 | 0.00 | ||
| 20260905190910 | 102 | 82 | 1.0 | 2.0 | 0.00 | 0.00 | 0.00 | ||
| 20260905185910 | 104 | 194 | 1.0 | 2.0 | 0.00 | 0.00 | 0.00 | ||
| 20260905185410 | 103 | 21 | 1.0 | 3.0 | 0.00 | 0.00 | 0.00 | ||
| 20260905184910 | 101 | 0 | 0.0 | 0.0 | 0.00 | 0.00 | 0.00 | ||
| 20260905184410 | 97 | 82 | 1.0 | 2.0 | 0.00 | 0.00 | 0.00 | ||
| 20260905183910 | 98 | 83 | 2.0 | 2.0 | 0.00 | 0.00 | 0.00 | ||
| 20260905183410 | 100 | 13 | 1.0 | 0.0 | 0.00 | 0.00 | 0.00 | ||
| 20260905182909 | 103 | 63 | 2.0 | 4.0 | 0.00 | 0.00 | 0.00 | ||
| 20260905182409 | 103 | 90 | 3.0 | 4.0 | 0.00 | 0.00 | 0.00 | ||
| 20260905181910 | 101 | 308 | 1.0 | 0.0 | 0.00 | 0.00 | 0.00 | ||
| 20260905180910 | 101 | 162 | 4.0 | 4.0 | 0.00 | 0.00 | 0.00 | ||
| 20260905180410 | 99 | 76 | 0.0 | 0.0 | 0.00 | 0.00 | 0.00 | ||
| 20260905175910 | 100 | 25 | 4.0 | 5.0 | 0.00 | 0.00 | 0.00 | ||
| 20260905175410 | 99 | 179 | 4.0 | 4.0 | 0.00 | 0.00 | 0.00 | ||
| 20260905174910 | 100 | 191 | 3.0 | 4.0 | 0.00 | 0.00 | 0.00 | ||
| 20260905174410 | 99 | 193 | 2.0 | 5.0 | 0.00 | 0.00 | 0.00 | ||
| 20260905173410 | 99 | 208 | 2.0 | 4.0 | 0.00 | 0.00 | 0.00 | ||
| 20260905172410 | 100 | 265 | 0.0 | 7.0 | 0.00 | 0.00 | 0.00 | ||
| 20260905171909 | 99 | 70 | 4.0 | 3.0 | 0.00 | 0.00 | 0.00 | ||
| 20260905170409 | 98 | 62 | 2.0 | 5.0 | 0.00 | 0.00 | 0.00 | ||
| 20260905165910 | 99 | 348 | 1.0 | 1.0 | 0.00 | 0.00 | 0.00 | ||
| 20260905164909 | 95 | 208 | 2.0 | 3.0 | 0.00 | 0.00 | 0.00 | ||
| 20260905164410 | 96 | 252 | 2.0 | 4.0 | 0.00 | 0.00 | 0.00 | ||
| 20260905163909 | 96 | 287 | 3.0 | 3.0 | 0.00 | 0.00 | 0.00 | ||
| 20260905163410 | 97 | 222 | 0.0 | 4.0 | 0.00 | 0.00 | 0.00 | ||
| 20260905162409 | 95 | 11 | 2.0 | 3.0 | 0.00 | 0.00 | 0.00 | ||
| 20260905161910 | 94 | 221 | 0.0 | 5.0 | 0.00 | 0.00 | 0.00 | ||
| 20260905161409 | 94 | 273 | 3.0 | 5.0 | 0.00 | 0.00 | 0.00 | ||
| 20260905160410 | 93 | 193 | 1.0 | 2.0 | 0.00 | 0.00 | 0.00 | ||
| 20260905155909 | 93 | 252 | 3.0 | 5.0 | 0.00 | 0.00 | 0.00 | ||
| 20260905154909 | 92 | 283 | 3.0 | 3.0 | 0.00 | 0.00 | 0.00 | ||
| 20260905154409 | 91 | 70 | 0.0 | 4.0 | 0.00 | 0.00 | 0.00 | ||
| 20260905153910 | 90 | 303 | 2.0 | 3.0 | 0.00 | 0.00 | 0.00 | ||
| 20260905153410 | 90 | 256 | 2.0 | 3.0 | 0.00 | 0.00 | 0.00 | ||
| 20260905152410 | 89 | 208 | 1.0 | 6.0 | 0.00 | 0.00 | 0.00 | ||
| 20260905151910 | 89 | 183 | 4.0 | 4.0 | 0.00 | 0.00 | 0.00 | ||
| 20260905150410 | 89 | 303 | 0.0 | 3.0 | 0.00 | 0.00 | 0.00 | ||
| 20260905144410 | 86 | 267 | 2.0 | 3.0 | 0.00 | 0.00 | 0.00 | ||
| 20260905143411 | 85 | 173 | 1.0 | 2.0 | 0.00 | 0.00 | 0.00 | ||
| 20260905142410 | 84 | 158 | 2.0 | 0.0 | 0.00 | 0.00 | 0.00 | ||
| 20260905141411 | 83 | 327 | 1.0 | 2.0 | 0.00 | 0.00 | 0.00 | ||
| 20260905140415 | 82 | 242 | 2.0 | 2.0 | 0.00 | 0.00 | 0.00 | ||
| 20260905140411 | 82 | 242 | 2.0 | 2.0 | 0.00 | 0.00 | 0.00 | ||
| 20260905135411 | 82 | 63 | 1.0 | 2.0 | 0.00 | 0.00 | 0.00 | ||
| 20260905134912 | 82 | 279 | 0.0 | 3.0 | 0.00 | 0.00 | 0.00 | ||
| 20260905131415 | 79 | 249 | 0.0 | 2.0 | 0.00 | 0.00 | 0.00 | ||
| 20260905131411 | 79 | 249 | 0.0 | 2.0 | 0.00 | 0.00 | 0.00 | ||
| 20260905130411 | 78 | 132 | 0.0 | 0.0 | 0.00 | 0.00 | 0.00 | ||
| 20260905125411 | 78 | 132 | 0.0 | 0.0 | 0.00 | 0.00 | 0.00 | ||
| 20260905121411 | 78 | 132 | 0.0 | 0.0 | 0.00 | 0.00 | 0.00 | ||
| 20260905115411 | 78 | 111 | 0.0 | 0.0 | 0.00 | 0.00 | 0.00 | ||
| 20260905114414 | 78 | 111 | 0.0 | 0.0 | 0.00 | 0.00 | 0.00 | ||
| 20260905114410 | 78 | 111 | 0.0 | 0.0 | 0.00 | 0.00 | 0.00 | ||
| 20260905113411 | 78 | 111 | 0.0 | 0.0 | 0.00 | 0.00 | 0.00 | ||
| 20260905112412 | 77 | 111 | 0.0 | 0.0 | 0.00 | 0.00 | 0.00 | ||
| 20260905111411 | 77 | 111 | 0.0 | 0.0 | 0.00 | 0.00 | 0.00 | ||
| 20260905110412 | 77 | 111 | 0.0 | 0.0 | 0.00 | 0.00 | 0.00 | ||
| 20260905105411 | 77 | 111 | 0.0 | 0.0 | 0.00 | 0.00 | 0.00 | ||
| 20260905104411 | 77 | 111 | 0.0 | 0.0 | 0.00 | 0.00 | 0.00 | ||
| 20260905103448 | 78 | 111 | 0.0 | 0.0 | 0.00 | 0.00 | 0.00 | ||
| 20260905103411 | 78 | 111 | 0.0 | 0.0 | 0.00 | 0.00 | 0.00 |